This demonstration page uses our WeatherBlox Daily Observations layout. Learn more.

Left ArrowRight Arrow

33.98154, -81.23621

Hourly Observations for August 9, 2022

Temp ( °F °C ) Dew Point ( °F °C ) Humidity (%) Winds ( mph kmh ) Pressure ( in mb ) Visibility ( mi km ) Precip ( " mm )
12:56 am 00:56 Mostly Cloudy 77 25 71 21.7 82 82 Calm 30.11 1020 10 16 0.00 0.00
1:56 am 01:56 Mostly Clear 76 24.4 71 21.7 85 85 SSW 5 7 30.10 1019 10 16 0.00 0.00
2:56 am 02:56 Mostly Clear 75 23.9 72 22.2 90 90 WSW 6 9 30.09 1019 10 16 0.00 0.00
3:56 am 03:56 Partly Cloudy 74 23.3 72 22.2 94 94 S 3 6 30.09 1019 10 16 0.00 0.00
4:56 am 04:56 Cloudy 75 23.9 72 22.2 90 90 Calm 30.09 1019 10 16 0.00 0.00
5:56 am 05:56 Mostly Clear 74 23.3 72 22.2 94 94 Calm 30.09 1019 10 16 0.00 0.00
6:56 am 06:56 Partly Cloudy 74 23.3 72 22.2 94 94 Calm 30.11 1020 10 16 0.00 0.00
7:56 am 07:56 Mostly Sunny 75 23.9 72 22.2 90 90 VRB 3 6 30.12 1020 10 16 0.00 0.00
8:56 am 08:56 Mostly Sunny 79 26.1 73 22.8 82 82 SSW 6 9 30.13 1020 10 16 0.00 0.00
9:56 am 09:56 Mostly Sunny 83 28.3 74 23.3 74 74 WSW 8 13 30.14 1021 10 16 0.00 0.00
10:56 am 10:56 Mostly Sunny 85 29.4 73 22.8 68 68 SW 10 17 30.13 1020 10 16 0.00 0.00
11:56 am 11:56 Partly Cloudy 88 31.1 72 22.2 59 59 SW 9 15 30.13 1020 10 16 0.00 0.00
12:56 pm 12:56 Partly Cloudy 90 32.2 71 21.7 54 54 SW 10 17 30.11 1020 10 16 0.00 0.00
1:56 pm 13:56 Partly Cloudy 92 33.3 72 22.2 52 52 VRB 6 9 30.09 1019 10 16 0.00 0.00
2:56 pm 14:56 Partly Cloudy 92 33.3 71 21.7 51 51 WSW 10 17 30.07 1018 10 16 0.00 0.00
3:56 pm 15:56 Partly Cloudy 92 33.3 70 21.1 49 49 SSW 10 17 30.05 1018 10 16 0.00 0.00
4:56 pm 16:56 Partly Cloudy 94 34.4 69 20.6 45 45 SW 12 19 30.04 1017 10 16 0.00 0.00
5:56 pm 17:56 Partly Cloudy 93 33.9 69 20.6 46 46 SSW 12 19 30.03 1017 10 16 0.00 0.00
6:56 pm 18:56 Partly Cloudy 92 33.3 70 21.1 49 49 SSW 10 17 30.04 1017 10 16 0.00 0.00
7:56 pm 19:56 Partly Cloudy 89 31.7 70 21.1 54 54 S 5 7 30.05 1018 10 16 0.00 0.00
8:56 pm 20:56 Partly Cloudy 85 29.4 71 21.7 63 63 S 7 11 30.06 1018 10 16 0.00 0.00
9:56 pm 21:56 Partly Cloudy 84 28.9 70 21.1 63 63 SW 3 6 30.09 1019 10 16 0.00 0.00
10:56 pm 22:56 Partly Cloudy 82 27.8 72 22.2 72 72 SW 7 11 30.10 1019 10 16 0.00 0.00
11:56 pm 23:56 Partly Cloudy 81 27.2 72 22.2 74 74 SSW 8 13 30.11 1020 10 16 0.00 0.00

Powered by AerisWeather